DW9672 Weather Reports


Display with metric or nautical units.
time (UTC)temp
F
wind
direction
speed
MPH
gust
MPH
rain 1hr
in
rain 24hr
in
rain mn
in
humidity
%
barometer
mb
20260906194535 81 26 3.0 8.0 0.00 0.00 0.00 64 1018.6
20260906193017 81 101 2.0 9.0 0.00 0.00 0.00 64 1018.6
20260906191517 81 78 3.0 9.0 0.00 0.00 0.00 65 1018.7
20260906190111 81 9 2.0 9.0 0.00 0.00 0.00 66 1018.8
20260906184559 81 49 2.0 8.0 0.00 0.01 0.00 67 1018.8
20260906183042 81 156 5.0 10.0 0.00 0.01 0.00 66 1018.7
20260906181537 81 61 1.0 8.0 0.00 0.01 0.00 67 1018.8
20260906180019 80 116 2.0 9.0 0.00 0.01 0.00 68 1019.0
20260906174517 80 138 2.0 7.0 0.00 0.01 0.00 69 1019.1
20260906173108 80 127 1.0 9.0 0.00 0.01 0.00 69 1019.2
20260906171559 79 130 2.0 9.0 0.00 0.01 0.00 70 1019.5
20260906170109 79 139 3.0 7.0 0.00 0.01 0.00 69 1019.7
20260906164540 78 157 2.0 9.0 0.00 0.01 0.00 70 1019.9
20260906163037 78 98 0.0 5.0 0.00 0.01 0.00 73 1019.8
20260906161536 78 192 1.0 6.0 0.00 0.01 0.00 74 1019.8
20260906160034 77 131 2.0 7.0 0.00 0.01 0.00 77 1019.7
20260906154533 77 90 1.0 6.0 0.00 0.01 0.00 76 1019.6
20260906153032 78 120 2.0 7.0 0.00 0.01 0.00 75 1019.3
20260906151529 77 150 2.0 6.0 0.00 0.01 0.00 78 1019.5
20260906150015 76 98 3.0 7.0 0.00 0.01 0.00 79 1019.4
20260906144512 75 169 2.0 6.0 0.00 0.01 0.00 81 1019.4
20260906143011 75 78 3.0 9.0 0.00 0.01 0.00 83 1019.3
20260906141508 75 159 1.0 7.0 0.00 0.01 0.00 83 1019.3
20260906140009 74 161 1.0 7.0 0.00 0.01 0.00 85 1019.5
20260906134506 74 95 1.0 9.0 0.00 0.01 0.00 86 1019.4
20260906133001 73 122 1.0 7.0 0.00 0.01 0.00 89 1019.4
20260906131559 73 111 2.0 5.0 0.00 0.01 0.00 92 1019.4
20260906130040 71 81 0.0 0.0 0.00 0.01 0.00 95 1019.2
20260906124544 70 63 0.0 3.0 0.00 0.01 0.00 97 1019.1
20260906123038 69 62 0.0 0.0 0.00 0.01 0.00 97 1019.2
20260906121519 69 62 0.0 2.0 0.00 0.01 0.00 96 1018.9
20260906120057 69 53 0.0 0.0 0.00 0.01 0.00 96 1018.3
20260906114604 69 53 0.0 0.0 0.00 0.01 0.00 96 1018.2
20260906113044 69 54 0.0 4.0 0.00 0.01 0.00 96 1018.1
20260906111543 69 67 0.0 5.0 0.00 0.01 0.00 96 1017.9
20260906110040 69 42 1.0 4.0 0.00 0.01 0.00 95 1017.7
20260906104538 70 63 0.0 3.0 0.00 0.01 0.00 95 1017.4
20260906103037 70 33 0.0 3.0 0.00 0.01 0.00 95 1017.3
20260906101536 70 41 0.0 5.0 0.00 0.01 0.00 95 1017.3
20260906100035 70 47 0.0 3.0 0.00 0.01 0.00 95 1017.2
20260906094533 70 11 0.0 3.0 0.00 0.01 0.00 95 1017.1
20260906093021 70 22 2.0 5.0 0.00 0.01 0.00 95 1017.1
20260906091517 70 46 1.0 4.0 0.00 0.01 0.00 95 1017.2
20260906090007 70 46 0.0 4.0 0.00 0.01 0.00 95 1017.0
20260906084504 70 25 1.0 4.0 0.00 0.01 0.00 95 1017.0
20260906083004 70 31 0.0 3.0 0.00 0.01 0.00 95 1016.9
20260906081508 70 32 0.0 3.0 0.00 0.01 0.00 95 1016.8
20260906080006 71 19 0.0 0.0 0.00 0.01 0.00 94 1016.9
20260906074606 71 35 0.0 2.0 0.00 0.01 0.00 94 1017.1
20260906073058 71 35 0.0 0.0 0.00 0.01 0.00 93 1017.0
20260906071557 71 34 0.0 0.0 0.00 0.01 0.00 93 1017.1
20260906070039 72 22 0.0 0.0 0.00 0.01 0.00 93 1017.2
20260906064539 72 23 0.0 2.0 0.00 0.01 0.00 92 1017.3
20260906063021 72 28 0.0 0.0 0.00 0.01 0.00 92 1017.4
20260906061518 72 28 0.0 2.0 0.00 0.01 0.00 92 1017.2
20260906060008 72 44 2.0 4.0 0.00 0.01 0.00 91 1017.1
20260906054506 72 42 0.0 2.0 0.00 0.01 0.00 91 1017.1
20260906053005 72 56 0.0 3.0 0.00 0.01 0.00 91 1017.0
20260906051505 72 66 0.0 3.0 0.00 0.01 0.00 90 1016.9
20260906050004 72 63 0.0 4.0 0.00 0.01 0.00 90 1016.7
20260906044501 72 123 0.0 2.0 0.00 0.01 0.00 90 1016.5
20260906043103 72 82 2.0 6.0 0.00 0.01 0.00 90 1016.4
20260906041601 72 14 0.0 6.0 0.00 0.01 0.00 90 1016.2
20260906040046 72 139 0.0 8.0 0.00 0.01 0.00 90 1016.2
20260906034545 72 140 0.0 6.0 0.00 0.01 0.01 91 1016.0
20260906033057 72 61 0.0 3.0 0.00 0.01 0.01 90 1016.0
20260906031543 73 80 2.0 7.0 0.00 0.01 0.01 90 1016.0
20260906030045 73 82 0.0 6.0 0.00 0.01 0.01 89 1016.1
20260906024545 74 136 2.0 7.0 0.00 0.01 0.01 89 1016.0
20260906023048 75 102 0.0 1.0 0.00 0.01 0.01 89 1015.9
20260906021536 75 42 0.0 1.0 0.00 0.01 0.01 89 1015.8
20260906020016 76 40 0.0 4.0 0.00 0.01 0.01 88 1015.4
20260906014515 76 65 0.0 6.0 0.00 0.01 0.01 88 1015.2
20260906013115 77 20 1.0 6.0 0.00 0.01 0.01 88 1014.9
20260906011605 77 26 0.0 0.0 0.00 0.01 0.01 87 1015.0
20260906010058 77 26 0.0 0.0 0.00 0.01 0.01 86 1015.0
20260906004539 78 26 0.0 2.0 0.00 0.02 0.01 85 1015.0
20260906003038 79 32 0.0 0.0 0.00 0.02 0.01 83 1014.8
20260906001521 79 32 0.0 3.0 0.00 0.02 0.01 82 1014.8
20260906000036 80 36 1.0 6.0 0.00 0.02 0.01 81 1014.9
20260905234507 80 29 1.0 6.0 0.00 0.02 0.01 81 1014.8
20260905233006 81 103 1.0 6.0 0.00 0.02 0.01 80 1014.5
20260905231505 82 96 2.0 11.0 0.00 0.02 0.01 79 1014.5
20260905230004 83 60 4.0 10.0 0.00 0.02 0.01 77 1014.5
20260905224504 84 51 4.0 11.0 0.00 0.02 0.01 77 1014.3
20260905223007 85 58 5.0 10.0 0.00 0.02 0.01 75 1014.1
20260905221502 86 19 2.0 11.0 0.00 0.02 0.01 76 1014.0
20260905220003 86 74 4.0 11.0 0.00 0.02 0.01 75 1014.0
20260905214547 87 38 4.0 9.0 0.00 0.02 0.01 73 1013.7
20260905213047 87 355 1.0 10.0 0.00 0.02 0.01 74 1013.6
20260905211552 87 67 3.0 9.0 0.00 0.02 0.01 72 1013.6
20260905210048 88 25 4.0 10.0 0.00 0.02 0.01 72 1013.4
20260905204547 88 48 5.0 10.0 0.00 0.02 0.01 73 1013.4
20260905201548 88 52 5.0 9.0 0.00 0.02 0.01 75 1013.7
20260905200048 88 92 2.0 9.0 0.00 0.02 0.01 75 1013.8